Location: Dob?e?
(49.9411°N, 15.1496°E)
Time: 20:18:00
(UTC+00:00)

NOSS 2-1 (C) - Pass Details

Date: 07 June 2020
Orbit: 448 x 1755 km, 63.3° (Epoch: 29 June)

Event Time Altitude Azimuth Distance (km) Brightness Sun altitude
Exits shadow 01:12:31 19° 213° (SSW) 1,151 4.3 -11.4°
Maximum altitude 01:14:51 74° 131° (SE) 481 3.0 -11.2°
Drops below altitude 10° 01:18:30 10° 46° (NE) 1,715 7.3 -10.9°
Sets 01:20:51 0° 44° (NE) 2,718 8.8 -10.7°
